This demonstration page uses our WeatherBlox Daily Observations layout. Learn more.

Left ArrowRight Arrow

30.00354, -91.81873

Hourly Observations for July 21, 2022

Temp ( °F °C ) Dew Point ( °F °C ) Humidity (%) Winds ( mph kmh ) Pressure ( in mb ) Visibility ( mi km ) Precip ( " mm )
12:53 am 00:53 Clear 80 26.7 76 24.4 87 87 SW 5 7 29.94 1014 10 16 0.00 0.00
1:53 am 01:53 Clear 79 26.1 76 24.4 90 90 SSW 5 7 29.92 1013 10 16 0.00 0.00
2:53 am 02:53 Clear 79 26.1 75 23.9 88 88 SSW 5 7 29.92 1013 10 16 0.00 0.00
3:53 am 03:53 Clear 79 26.1 75 23.9 88 88 SW 3 6 29.92 1013 10 16 0.00 0.00
4:53 am 04:53 Clear 78 25.6 75 23.9 90 90 SSW 5 7 29.93 1013 10 16 0.00 0.00
5:53 am 05:53 Clear 77 25 74 23.3 90 90 Calm 29.94 1014 8 13 0.00 0.00
6:53 am 06:53 Sunny 77 25 74 23.3 90 90 Calm 29.95 1014 8 13 0.00 0.00
7:53 am 07:53 Mostly Sunny 82 27.8 76 24.4 82 82 Calm 29.98 1015 10 16 0.00 0.00
8:53 am 08:53 Mostly Cloudy 85 29.4 77 25 77 77 W 6 9 30.00 1016 10 16 0.00 0.00
9:08 am 09:08 Mostly Cloudy 86 30 77 25 75 75 W 7 11 30.00 1016 10 16 0.00 0.00
9:53 am 09:53 Partly Cloudy 89 31.7 77 25 68 68 W 7 11 30.00 1016 10 16 0.00 0.00
10:53 am 10:53 Mostly Sunny 91 32.8 75 23.9 59 59 WSW 10 17 30.01 1016 10 16 0.00 0.00
11:53 am 11:53 Sunny 92 33.3 75 23.9 58 58 WSW 9 15 30.01 1016 10 16 0.00 0.00
12:53 pm 12:53 Mostly Sunny 93 33.9 74 23.3 54 54 SSW 8 13 29.99 1016 10 16 0.00 0.00
1:53 pm 13:53 Mostly Sunny 93 33.9 76 24.4 58 58 SSW 12 19 29.98 1015 10 16 0.00 0.00
2:53 pm 14:53 Partly Cloudy 94 34.4 76 24.4 56 56 SW 9 15 29.96 1015 10 16 0.00 0.00
3:40 pm 15:40 Partly Cloudy with Nearby Thunderstorms 91 32.8 73 22.8 56 56 SW 9 15 29.96 1014 10 16 0.00 0.00
3:53 pm 15:53 Partly Cloudy with Nearby Thunderstorms 91 32.8 72 22.2 54 54 SW 9 15 29.96 1015 10 16 0.00 0.00
4:18 pm 16:18 Mostly Cloudy 91 32.8 71 21.7 52 52 S 8 13 29.95 1014 10 16 0.00 0.00
4:53 pm 16:53 Mostly Sunny 90 32.2 77 25 66 66 SSW 14 22 29.94 1014 10 16 0.00 0.00
5:53 pm 17:53 Sunny with Nearby Thunderstorms 88 31.1 73 22.8 61 61 S 9 15 29.93 1014 10 16 0.00 0.00
6:37 pm 18:37 Sunny 87 30.6 75 23.9 67 67 SSW 7 11 29.92 1013 10 16 0.00 0.00
6:53 pm 18:53 Sunny 86 30 75 23.9 70 70 S 7 11 29.91 1013 10 16 0.00 0.00
7:53 pm 19:53 Sunny 85 29.4 76 24.4 75 75 SW 6 9 29.93 1014 10 16 0.00 0.00
8:53 pm 20:53 Mostly Clear 83 28.3 77 25 82 82 SSW 6 9 29.95 1014 10 16 0.00 0.00
9:53 pm 21:53 Clear 82 27.8 76 24.4 82 82 SSW 5 7 29.95 1014 10 16 0.00 0.00
10:53 pm 22:53 Clear 82 27.8 77 25 85 85 Calm 29.97 1015 10 16 0.00 0.00
11:53 pm 23:53 Clear 80 26.7 76 24.4 87 87 Calm 29.98 1015 10 16 0.00 0.00

Powered by AerisWeather